M I D A S
Marine Information and Data Acquisition System
Tripno 523 of the Zeeleeuw from 2003-06-24 06:22:32 to 2003-06-24 11:27:24
Back to CruiseResearch ActivitiesStationsMapUnderway DataData graphs

EquipmentUnitsComments
TimeDGPSUTC
LatitudeDGPSDM.mWGS84
LongitudeDGPSDM.mWGS84
SpeedMeteo Stationm/sRelative wind speed
DirectionMeteo StationdegRelative wind direction
TemperatureMeteo Stationdeg CelciusAir temperature
PressureMeteo StationPaAtmospheric pressure
HumidityMeteo Station%Relative humidity
Missing or incorrect values are displayed as -999
Metereological data collected by the RV Zeeleeuw from 2003-06-24 06:22:32 to 2003-06-24 11:27:24
Time Latitude Longitude Speed Direction Temperature Pressure Humidity
2003-06-24 06:23 51°13.59 2°56.13 3 217 16.7 101820 59
2003-06-24 06:24 51°13.59 2°56.13 3.6 226 16.8 101820 59
2003-06-24 06:25 51°13.6 2°56.07 4.4 215 16.8 101820 58
2003-06-24 06:26 51°13.62 2°55.98 5.5 213 16.8 101820 58
2003-06-24 06:27 51°13.65 2°55.89 6 208 16.7 101820 58
2003-06-24 06:28 51°13.69 2°55.79 6.1 216 16.7 101820 60
2003-06-24 06:29 51°13.73 2°55.73 4.3 181 16.8 101820 63
2003-06-24 06:30 51°13.73 2°55.72 3.1 119 16.8 101820 58
2003-06-24 06:31 51°13.72 2°55.71 3.5 128 16.7 101810 60
2003-06-24 06:32 51°13.73 2°55.73 4.6 126 16.7 101820 60
2003-06-24 06:33 51°13.73 2°55.7 3.9 75 16.7 101810 59
2003-06-24 06:34 51°13.73 2°55.7 5.7 29 16.6 101820 59
2003-06-24 06:35 51°13.79 2°55.64 8.1 360 16.6 101820 60
2003-06-24 06:36 51°13.9 2°55.57 9.1   16.6 101820 61
2003-06-24 06:37 51°14.02 2°55.49 9.6 356 16.5 101810 58
2003-06-24 06:38 51°14.13 2°55.41 8.4 359 16.6 101810 60
2003-06-24 06:39 51°14.24 2°55.29 9.9 18 16.6 101820 61
2003-06-24 06:40 51°14.33 2°55.11 10.6 11 16.6 101820 63
2003-06-24 06:41 51°14.48 2°54.95 12.3 13 16.5 101800 61
2003-06-24 06:42 51°14.67 2°54.76 12.1 15 16.4 101810 64
2003-06-24 06:43 51°14.88 2°54.56 11.9 6 16.4 101810 62
2003-06-24 06:44 51°15.06 2°54.38 13 13 16.4 101800 62
2003-06-24 06:46 51°15.26 2°54.17 13.1 10 16.4 101800 63
2003-06-24 06:47 51°15.49 2°53.94 14.3 10 16.4 101810 64
2003-06-24 06:48 51°15.69 2°53.74 13.4 3 16.4 101820 64
2003-06-24 06:49 51°15.92 2°53.55 13.1 6 16.3 101810 65
2003-06-24 06:50 51°16.15 2°53.36 14.2 2 16.2 101810 64
2003-06-24 06:51 51°16.37 2°53.18 14.6 360 16.2 101820 65
2003-06-24 06:52 51°16.58 2°53 13.6 5 16.2 101820 66
2003-06-24 06:53 51°16.77 2°52.84 14.1 2 16.2 101820 67
2003-06-24 06:54 51°17 2°52.65 13.1 357 16.1 101830 65
2003-06-24 06:55 51°17.23 2°52.6 13.4 350 16.1 101830 65
2003-06-24 06:56 51°17.48 2°52.57 12.5 349 16.1 101820 67
2003-06-24 06:58 51°17.72 2°52.54 12.5 352 16.1 101830 66
2003-06-24 06:59 51°17.96 2°52.51 12.3 353 16 101830 66
2003-06-24 07:00 51°18.22 2°52.49 12.1 351 16 101840 67
2003-06-24 07:01 51°18.43 2°52.63 8.8 329 16 101840 66
2003-06-24 07:02 51°18.54 2°53.03 9.5 322 16 101850 68
2003-06-24 07:03 51°18.66 2°53.44 8.8 322 15.9 101850 67
2003-06-24 07:04 51°18.78 2°53.82 8.1 327 16 101840 68
2003-06-24 07:05 51°18.88 2°54.16 7.9 319 15.9 101840 66
2003-06-24 07:06 51°19 2°54.57 8.6 329 15.9 101840 66
2003-06-24 07:07 51°19.11 2°54.96 8.4 322 16 101840 67
2003-06-24 07:08 51°19.23 2°55.35 9.3 325 16 101840 67
2003-06-24 07:10 51°19.35 2°55.76 8.3 321 16 101840 67
2003-06-24 07:11 51°19.45 2°56.12 8.6 329 16 101840 67
2003-06-24 07:12 51°19.58 2°56.54 8.6 324 16 101830 68
2003-06-24 07:13 51°19.69 2°56.95 7.5 322 16 101830 67
2003-06-24 07:14 51°19.82 2°57.38 9.7 324 16 101830 68
2003-06-24 07:15 51°19.93 2°57.76 8.7 323 16 101840 67
2003-06-24 07:16 51°20.04 2°58.18 8 324 16 101830 67
2003-06-24 07:17 51°20.14 2°58.55 8.1 323 16 101830 67
2003-06-24 07:18 51°20.24 2°58.95 8.3 318 15.9 101840 68
2003-06-24 07:20 51°20.35 2°59.4 8 328 16 101830 69
2003-06-24 07:21 51°20.44 2°59.8 8.1 331 16 101830 69
2003-06-24 07:22 51°20.54 3°0.21 7.4 317 16.1 101820 69
2003-06-24 07:23 51°20.64 3°0.64 8 331 16.1 101830 68
2003-06-24 07:24 51°20.75 3°1.07 8.8 325 16.1 101830 68
2003-06-24 07:25 51°20.85 3°1.5 9.3 321 16.1 101830 67
2003-06-24 07:26 51°20.95 3°1.9 8.3 319 16.1 101830 67
2003-06-24 07:28 51°21.05 3°2.33 8.4 328 16.1 101820 68
2003-06-24 07:29 51°21.14 3°2.7 8.8 323 16.2 101830 68
2003-06-24 07:30 51°21.24 3°3.15 8.7 323 16.2 101830 68
2003-06-24 07:31 51°21.32 3°3.56 7.8 326 16.1 101830 65
2003-06-24 07:32 51°21.4 3°3.94 8.6 321 16.2 101830 67
2003-06-24 07:33 51°21.47 3°4.33 7.9 315 16.2 101840 65
2003-06-24 07:34 51°21.55 3°4.74 8.6 324 16.3 101830 67
2003-06-24 07:35 51°21.62 3°5.12 8.4 318 16.2 101830 65
2003-06-24 07:36 51°21.71 3°5.59 9.8 319 16.2 101840 66
2003-06-24 07:37 51°21.78 3°6 7.2 331 16.2 101830 65
2003-06-24 07:38 51°21.84 3°6.39 8 327 16.3 101850 66
2003-06-24 07:39 51°21.9 3°6.78 7.7 329 16.4 101840 67
2003-06-24 07:40 51°21.96 3°7.2 8.2 317 16.4 101850 68
2003-06-24 07:41 51°22.01 3°7.6 7.1 325 16.3 101850 66
2003-06-24 07:42 51°22.07 3°8.02 7.4 326 16.3 101850 65
2003-06-24 07:43 51°22.12 3°8.42 7.2 319 16.3 101850 63
2003-06-24 07:44 51°22.18 3°8.88 7.4 326 16.4 101850 67
2003-06-24 07:46 51°22.24 3°9.31 6.8 324 16.4 101850 66
2003-06-24 07:47 51°22.29 3°9.71 7.6 332 16.4 101850 66
2003-06-24 07:48 51°22.34 3°10.12 7.5 329 16.4 101840 64
2003-06-24 07:49 51°22.4 3°10.59 6.6 330 16.5 101840 66
2003-06-24 07:50 51°22.45 3°10.99 6.3 328 16.4 101840 65
2003-06-24 07:51 51°22.5 3°11.4 6.9 322 16.5 101850 66
2003-06-24 07:52 51°22.56 3°11.85 7.5 327 16.5 101840 64
2003-06-24 07:53 51°22.61 3°12.26 7.1 331 16.5 101840 65
2003-06-24 07:54 51°22.66 3°12.65 6.8 331 16.6 101850 65
2003-06-24 07:55 51°22.71 3°13.06 7 335 16.6 101850 65
2003-06-24 07:56 51°22.76 3°13.54 7.3 332 16.6 101860 64
2003-06-24 07:57 51°22.86 3°13.91 10.9 347 16.7 101850 64
2003-06-24 07:58 51°23.07 3°13.96 11.4 13 16.7 101850 65
2003-06-24 07:59 51°23.24 3°13.72 11.3 11 16.6 101850 65
2003-06-24 08:00 51°23.4 3°13.46 11.7 14 16.5 101840 66
2003-06-24 08:01 51°23.55 3°13.23 11.5 13 16.5 101830 64
2003-06-24 08:02 51°23.7 3°12.99 12.4 9 16.5 101840 66
2003-06-24 08:03 51°23.82 3°12.74 12.3 20 16.4 101840 65
2003-06-24 08:04 51°23.92 3°12.46 12.4 21 16.4 101840 65
2003-06-24 08:05 51°24.02 3°12.16 12.3 18 16.4 101830 64
2003-06-24 08:06 51°24.11 3°11.88 12.4 15 16.4 101820 65
2003-06-24 08:07 51°24.21 3°11.6 11.6 14 16.3 101840 65
2003-06-24 08:08 51°24.28 3°11.31 11.8 24 16.3 101820 66
2003-06-24 08:09 51°24.29 3°10.99 11 31 16.2 101820 64
2003-06-24 08:10 51°24.31 3°10.66 11.7 21 16.2 101820 67
2003-06-24 08:11 51°24.32 3°10.34 10.3 36 16.2 101830 66
2003-06-24 08:12 51°24.29 3°10 11.3 27 16.1 101820 68
2003-06-24 08:13 51°24.27 3°9.67 10.3 26 16 101820 66
2003-06-24 08:14 51°24.25 3°9.34 11.4 29 16.1 101830 70
2003-06-24 08:15 51°24.24 3°9.01 11.9 31 16 101830 67
2003-06-24 08:16 51°24.22 3°8.68 10.3 25 16 101830 70
2003-06-24 08:17 51°24.2 3°8.34 10.8 29 16 101820 69
2003-06-24 08:18 51°24.18 3°8.01 10.8 29 16 101820 68
2003-06-24 08:19 51°24.16 3°7.68 11.2 25 16 101820 69
2003-06-24 08:20 51°24.14 3°7.35 10.5 29 15.9 101820 67
2003-06-24 08:21 51°24.12 3°7.03 10.9 28 16 101820 69
2003-06-24 08:22 51°24.1 3°6.71 10.8 30 16 101840 69
2003-06-24 08:23 51°24.08 3°6.38 10.9 29 16 101830 68
2003-06-24 08:24 51°24.13 3°6.06 12.1 17 16 101850 70
2003-06-24 08:25 51°24.21 3°5.76 11.4 16 16 101850 69
2003-06-24 08:26 51°24.3 3°5.45 11.2 14 16 101840 68
2003-06-24 08:27 51°24.39 3°5.14 11.5 16 16 101830 68
2003-06-24 08:28 51°24.47 3°4.83 11.4 19 16.1 101820 70
2003-06-24 08:29 51°24.55 3°4.52 11.7 20 16.1 101840 69
2003-06-24 08:30 51°24.63 3°4.22 11.1 16 16 101830 68
2003-06-24 08:31 51°24.72 3°3.9 11.8 16 16.1 101840 68
2003-06-24 08:32 51°24.81 3°3.62 12.3 20 16.1 101860 69
2003-06-24 08:33 51°24.89 3°3.31 11.1 20 16 101830 67
2003-06-24 08:34 51°24.96 3°2.99 10.4 17 16 101830 68
2003-06-24 08:35 51°25.03 3°2.67 10.1 16 16.1 101840 69
2003-06-24 08:36 51°25.09 3°2.34 10.4 15 16 101830 69
2003-06-24 08:37 51°25.15 3°2.01 10.6 14 16.1 101830 69
2003-06-24 08:38 51°25.21 3°1.68 10.8 17 16 101820 68
2003-06-24 08:39 51°25.28 3°1.35 10.8 13 16.1 101840 68
2003-06-24 08:40 51°25.37 3°1.04 12.6 8 16.1 101850 69
2003-06-24 08:41 51°25.55 3°0.84 11.8 357 16 101860 68
2003-06-24 08:42 51°25.79 3°0.81 10.8 345 16 101850 69
2003-06-24 08:43 51°26.02 3°0.79 10.4 348 16.1 101850 69
2003-06-24 08:44 51°26.26 3°0.77 11.4 352 16.1 101850 68
2003-06-24 08:45 51°26.5 3°0.75 11.2 348 16.1 101850 69
2003-06-24 08:46 51°26.74 3°0.74 12.1 347 16.1 101850 69
2003-06-24 08:47 51°26.99 3°0.72 10.4 346 16.1 101850 69
2003-06-24 08:48 51°27.23 3°0.71 11.2 349 16.1 101850 68
2003-06-24 08:49 51°27.47 3°0.69 10.9 349 16.2 101840 69
2003-06-24 08:50 51°27.72 3°0.68 11.7 347 16.2 101840 69
2003-06-24 08:51 51°27.96 3°0.67 11.6 351 16.2 101850 69
2003-06-24 08:52 51°28.2 3°0.65 11 351 16.1 101860 68
2003-06-24 08:53 51°28.44 3°0.64 12 352 16.2 101850 69
2003-06-24 08:54 51°28.69 3°0.62 11 346 16.1 101870 69
2003-06-24 08:55 51°28.93 3°0.61 10.9 353 16.1 101860 70
2003-06-24 08:56 51°29.17 3°0.61 11.2 348 16.1 101860 69
2003-06-24 08:57 51°29.41 3°0.6 11 350 16.1 101860 69
2003-06-24 08:58 51°29.65 3°0.6 10.6 350 16.1 101860 69
2003-06-24 08:59 51°29.89 3°0.59 11.2 347 16.1 101860 70
2003-06-24 09:00 51°30.13 3°0.59 11.4 351 16.2 101860 70
2003-06-24 09:01 51°30.37 3°0.58 11.1 347 16.1 101860 68
2003-06-24 09:02 51°30.61 3°0.57 11.1 353 16.1 101850 70
2003-06-24 09:03 51°30.86 3°0.56 11.2 351 16.1 101860 70
2003-06-24 09:04 51°31.1 3°0.56 10.8 352 16 101870 70
2003-06-24 09:05 51°31.34 3°0.55 10.7 348 16 101860 70
2003-06-24 09:06 51°31.58 3°0.56 11.7 348 16 101870 71
2003-06-24 09:07 51°31.82 3°0.57 11.1 344 16.1 101880 71
2003-06-24 09:08 51°32.06 3°0.59 12.5 345 16.1 101870 71
2003-06-24 09:09 51°32.31 3°0.64 12.1 347 16 101870 71
2003-06-24 09:10 51°32.55 3°0.69 11.1 342 16 101870 70
2003-06-24 09:11 51°32.79 3°0.74 11.6 341 16 101870 71
2003-06-24 09:12 51°33.03 3°0.79 11.7 344 15.9 101890 69
2003-06-24 09:13 51°33.28 3°0.83 10.8 342 16 101890 71
2003-06-24 09:14 51°33.52 3°0.87 11.5 338 16 101890 70
2003-06-24 09:15 51°33.76 3°0.91 10.5 346 15.9 101890 70
2003-06-24 09:16 51°33.99 3°0.94 11 341 16 101900 70
2003-06-24 09:17 51°34.23 3°0.98 11.7 341 16 101890 71
2003-06-24 09:18 51°34.43 3°0.83 12.7 12 16 101900 71
2003-06-24 09:19 51°34.42 3°0.51 10.6 43 15.9 101890 70
2003-06-24 09:20 51°34.29 3°0.24 10.8 38 15.7 101900 70
2003-06-24 09:21 51°34.17 2°59.96 10.8 39 15.5 101900 71
2003-06-24 09:22 51°34.04 2°59.69 10.3 40 15.5 101910 73
2003-06-24 09:23 51°33.91 2°59.43 10.4 41 15.4 101910 73
2003-06-24 09:24 51°33.77 2°59.17 10.9 38 15.4 101910 74
2003-06-24 09:25 51°33.64 2°58.9 10.3 45 15.3 101910 74
2003-06-24 09:26 51°33.51 2°58.64 10.8 39 15.3 101910 74
2003-06-24 09:27 51°33.37 2°58.38 10.3 42 15.2 101910 73
2003-06-24 09:28 51°33.24 2°58.12 10.8 41 15.3 101910 73
2003-06-24 09:29 51°33.11 2°57.85 10 42 15.3 101910 74
2003-06-24 09:30 51°32.97 2°57.59 11 37 15.3 101910 74
2003-06-24 09:31 51°32.84 2°57.33 10.2 46 15.3 101910 73
2003-06-24 09:32 51°32.71 2°57.07 10.1 42 15.3 101910 74
2003-06-24 09:33 51°32.57 2°56.81 10.8 40 15.3 101910 75
2003-06-24 09:34 51°32.44 2°56.55 10.7 43 15.3 101910 74
2003-06-24 09:35 51°32.31 2°56.29 9.8 45 15.2 101920 73
2003-06-24 09:36 51°32.18 2°56.03 10.5 43 15.3 101920 74
2003-06-24 09:37 51°32.05 2°55.75 10.5 37 15.3 101930 75
2003-06-24 09:38 51°31.93 2°55.48 10.8 39 15.2 101920 74
2003-06-24 09:39 51°31.81 2°55.2 10.6 39 15.2 101930 74
2003-06-24 09:40 51°31.69 2°54.93 11 46 15.2 101930 73
2003-06-24 09:41 51°31.57 2°54.65 10.4 43 15.2 101930 72
2003-06-24 09:42 51°31.45 2°54.37 11.2 44 15.2 101930 73
2003-06-24 09:43 51°31.34 2°54.09 10.2 46 15.3 101940 73
2003-06-24 09:44 51°31.23 2°53.8 11.6 45 15.3 101940 73
2003-06-24 09:45 51°31.11 2°53.52 9.9 44 15.3 101930 74
2003-06-24 09:46 51°31 2°53.23 10.2 38 15.3 101940 73
2003-06-24 09:47 51°30.89 2°52.95 10.7 41 15.3 101940 74
2003-06-24 09:48 51°30.78 2°52.67 10.7 41 15.2 101940 73
2003-06-24 09:49 51°30.66 2°52.38 10.6 44 15.3 101940 73
2003-06-24 09:50 51°30.55 2°52.1 9.9 42 15.3 101940 74
2003-06-24 09:51 51°30.44 2°51.82 10.4 43 15.3 101940 74
2003-06-24 09:52 51°30.33 2°51.54 11 42 15.3 101940 73
2003-06-24 09:53 51°30.22 2°51.26 10.4 40 15.3 101940 73
2003-06-24 09:54 51°30.11 2°50.98 10.6 39 15.3 101940 73
2003-06-24 09:55 51°30 2°50.71 10.6 45 15.3 101940 72
2003-06-24 09:56 51°29.89 2°50.42 11.4 42 15.3 101940 72
2003-06-24 09:57 51°29.78 2°50.14 10.3 39 15.3 101940 71
2003-06-24 09:58 51°29.67 2°49.86 9.7 45 15.3 101930 71
2003-06-24 09:59 51°29.56 2°49.58 10.4 43 15.3 101940 72
2003-06-24 10:00 51°29.45 2°49.3 10.7 42 15.4 101940 72
2003-06-24 10:01 51°29.34 2°49.02 10.4 50 15.4 101940 72
2003-06-24 10:02 51°29.23 2°48.74 9.9 50 15.4 101940 72
2003-06-24 10:03 51°29.06 2°48.56 6.9 66 15.4 101960 72
2003-06-24 10:04 51°28.85 2°48.5 6.4 54 15.4 101960 74
2003-06-24 10:05 51°28.63 2°48.55 5.2 58 15.4 101970 71
2003-06-24 10:06 51°28.42 2°48.64 4.9 53 15.4 101970 72
2003-06-24 10:07 51°28.2 2°48.73 4.8 42 15.4 101970 71
2003-06-24 10:08 51°27.98 2°48.81 5.3 50 15.4 101980 72
2003-06-24 10:09 51°27.77 2°48.89 5.4 50 15.4 101980 71
2003-06-24 10:10 51°27.55 2°48.97 5.2 58 15.4 101980 72
2003-06-24 10:11 51°27.33 2°49.04 4.7 50 15.4 101980 71
2003-06-24 10:12 51°27.12 2°49.12 5.3 59 15.4 101970 71
2003-06-24 10:13 51°26.9 2°49.13 6.8 48 15.4 101980 70
2003-06-24 10:14 51°26.7 2°49.02 7.9 52 15.5 101970 72
2003-06-24 10:15 51°26.53 2°48.83 8.9 42 15.5 101960 71
2003-06-24 10:16 51°26.41 2°48.56 10.8 37 15.5 101960 70
2003-06-24 10:17 51°26.3 2°48.28 10.3 40 15.5 101970 71
2003-06-24 10:18 51°26.19 2°47.99 11.1 41 15.5 101970 71
2003-06-24 10:19 51°26.08 2°47.71 9.6 38 15.5 101960 70
2003-06-24 10:20 51°25.96 2°47.44 10 40 15.6 101970 72
2003-06-24 10:21 51°25.82 2°47.19 8.5 43 15.6 101960 72
2003-06-24 10:22 51°25.66 2°46.97 8.7 48 15.6 101970 72
2003-06-24 10:23 51°25.48 2°46.81 8.3 48 15.5 101960 70
2003-06-24 10:24 51°25.29 2°46.66 7.7 51 15.6 101970 71
2003-06-24 10:25 51°25.11 2°46.5 7.8 50 15.6 101970 71
2003-06-24 10:26 51°24.92 2°46.35 7.6 50 15.6 101970 71
2003-06-24 10:27 51°24.73 2°46.21 7.7 51 15.6 101970 69
2003-06-24 10:28 51°24.53 2°46.09 7.4 49 15.6 101980 69
2003-06-24 10:29 51°24.32 2°45.99 6.3 47 15.7 101980 71
2003-06-24 10:30 51°24.11 2°45.91 6.5 51 15.6 101980 70
2003-06-24 10:31 51°23.9 2°45.85 6.6 43 15.6 101990 71
2003-06-24 10:32 51°23.68 2°45.78 5.5 46 15.6 101990 70
2003-06-24 10:33 51°23.47 2°45.7 6 46 15.6 101990 70
2003-06-24 10:34 51°23.26 2°45.63 6.2 51 15.7 101990 71
2003-06-24 10:35 51°23.04 2°45.57 5.3 50 15.6 102000 69
2003-06-24 10:36 51°22.83 2°45.52 7.3 46 15.7 102000 70
2003-06-24 10:37 51°22.61 2°45.46 6.7 39 15.6 102000 69
2003-06-24 10:38 51°22.39 2°45.44 5.6 40 15.7 102000 71
2003-06-24 10:39 51°22.21 2°45.36 7.2 48 15.7 102000 71
2003-06-24 10:40 51°22.14 2°45.24 6.7 56 15.7 101990 71
2003-06-24 10:41 51°22.09 2°45.17 5.4 69 15.7 101990 71
2003-06-24 10:42 51°22.06 2°45.11 5.6 82 15.7 101990 71
2003-06-24 10:43 51°21.95 2°45.12 2.3 77 15.7 102000 71
2003-06-24 10:44 51°21.82 2°45.32 2.7 11 15.8 102000 70
2003-06-24 10:45 51°21.67 2°45.59 2.5 358 15.9 102000 70
2003-06-24 10:46 51°21.51 2°45.86 3.2 355 16.2 102000 70
2003-06-24 10:47 51°21.35 2°46.12 3.6 358 16.4 102000 68
2003-06-24 10:48 51°21.18 2°46.38 2.5 356 16.4 102000 66
2003-06-24 10:49 51°21.01 2°46.64 2.2 360 16.6 102000 67
2003-06-24 10:50 51°20.84 2°46.9 2.5 29 16.6 102000 65
2003-06-24 10:51 51°20.67 2°47.15 2.1 22 16.6 101990 67
2003-06-24 10:52 51°20.5 2°47.41 2.7 22 16.6 101990 65
2003-06-24 10:53 51°20.34 2°47.65 3.3 11 16.7 101990 67
2003-06-24 10:54 51°20.16 2°47.9 3 350 16.7 101990 65
2003-06-24 10:55 51°20 2°48.15 3 358 16.8 101990 66
2003-06-24 10:56 51°19.83 2°48.4 3.6   16.9 102000 65
2003-06-24 10:57 51°19.66 2°48.64 3.2 360 16.9 102000 64
2003-06-24 10:58 51°19.5 2°48.9 2.8 356 16.8 102000 63
2003-06-24 10:59 51°19.34 2°49.17 4.2 346 16.9 102010 63
2003-06-24 11:00 51°19.17 2°49.43 2.8 352 16.9 102010 62
2003-06-24 11:01 51°19.01 2°49.68 3 5 17 102010 62
2003-06-24 11:02 51°18.84 2°49.94 3.4 14 17.2 102000 63
2003-06-24 11:03 51°18.67 2°50.19 3.1 20 17.1 102000 63
2003-06-24 11:04 51°18.49 2°50.44 4.5 4 17 101990 64
2003-06-24 11:05 51°18.32 2°50.69 3.6 8 16.8 101990 63
2003-06-24 11:06 51°18.17 2°50.97 3.1 1 16.9 102000 61
2003-06-24 11:07 51°18.03 2°51.26 3.2 2 16.9 102000 62
2003-06-24 11:08 51°17.88 2°51.54 3.6 358 16.9 102000 61
2003-06-24 11:09 51°17.74 2°51.82 4.3 360 17 102010 63
2003-06-24 11:10 51°17.59 2°52.1 4 337 17.1 102000 63
2003-06-24 11:11 51°17.41 2°52.3 3 10 17.2 102010 62
2003-06-24 11:12 51°17.2 2°52.43 3.3 19 17.2 102010 61
2003-06-24 11:13 51°16.99 2°52.57 3 13 17.1 102010 61
2003-06-24 11:14 51°16.79 2°52.72 3.5 32 17.1 102010 62
2003-06-24 11:15 51°16.58 2°52.87 3.5 18 17.1 102010 64
2003-06-24 11:16 51°16.38 2°53.02 3 12 17 102000 62
2003-06-24 11:17 51°16.17 2°53.17 3.4 12 17 102000 62
2003-06-24 11:18 51°15.96 2°53.32 4.4 34 17 102000 62
2003-06-24 11:19 51°15.74 2°53.46 4 22 16.9 101990 62
2003-06-24 11:20 51°15.54 2°53.63 3.6 18 16.8 101990 63
2003-06-24 11:21 51°15.34 2°53.8 3.6 23 16.9 101990 63
2003-06-24 11:22 51°15.14 2°53.97 3.1 25 16.9 102000 65
2003-06-24 11:23 51°14.95 2°54.17 3 346 17 102000 63
2003-06-24 11:24 51°14.79 2°54.39 3.6 343 17.1 102000 64
2003-06-24 11:25 51°14.64 2°54.6 3.3 353 17.3 102010 63
2003-06-24 11:26 51°14.49 2°54.81 3.9 352 17.5 102010 65